"Sample Date","Sample Time","Sample Value","Units","Flow Rate","Sample Interval","Number Channels","Micron Size 0","Counts/Channel 0","Micron Size 1","Counts/Channel 1","Micron Size 2","Counts/Channel 2","Micron Size 3","Counts/Channel 3","Micron Size 4","Counts/Channel 4","Micron Size 5","Counts/Channel 5","Micron Size 6","Counts/Channel 6","Micron Size 7","Counts/Channel 7","Micron Size 8","Counts/Channel 8","Micron Size 9","Counts/Channel 9","Micron Size 10","Counts/Channel 10","Micron Size 11","Counts/Channel 11","Micron Size 12","Counts/Channel 12","Micron Size 13","Counts/Channel 13","Micron Size 14","Counts/Channel 14","Micron Size 15","Counts/Channel 15","Micron Size 16","Counts/Channel 16","Micron Size 17","Counts/Channel 17","Micron Size 18","Counts/Channel 18","Micron Size 19","Counts/Channel 19","Micron Size 20","Counts/Channel 20","Micron Size 21","Counts/Channel 21","Micron Size 22","Counts/Channel 22","Micron Size 23","Counts/Channel 23","Micron Size 24","Counts/Channel 24","Micron Size 25","Counts/Channel 25","Micron Size 26","Counts/Channel 26","Micron Size 27","Counts/Channel 27","Micron Size 28","Counts/Channel 28","Micron Size 29","Counts/Channel 29","Micron Size 30","Counts/Channel 30","Micron Size 31","Counts/Channel 31"
"04/05/08","06:00:00",9952.000,"cc",28320.147,6.00,6,0.100,9785.000,0.200,165.000,0.300,1.000,0.500,1.000,1.000,0,5.000,0
"04/05/08","06:00:06",9257.000,"cc",28315.494,6.00,6,0.100,9126.000,0.200,128.000,0.300,3.000,0.500,0,1.000,0,5.000,0
"04/05/08","06:00:12",8215.000,"cc",28353.246,6.00,6,0.100,8155.000,0.200,59.000,0.300,1.000,0.500,0,1.000,0,5.000,0
"04/05/08","06:00:18",9430.000,"cc",28366.807,6.00,6,0.100,9328.000,0.200,102.000,0.300,0,0.500,0,1.000,0,5.000,0
"04/05/08","06:00:24",9294.000,"cc",28330.604,6.00,6,0.100,9218.000,0.200,73.000,0.300,3.000,0.500,0,1.000,0,5.000,0
"04/05/08","06:00:30",9813.000,"cc",28277.039,6.00,6,0.100,9713.000,0.200,99.000,0.300,0,0.500,1.000,1.000,0,5.000,0
"04/05/08","06:00:36",10272.000,"cc",28306.658,6.00,6,0.100,10187.000,0.200,84.000,0.300,1.000,0.500,0,1.000,0,5.000,0
"04/05/08","06:00:42",11620.000,"cc",28227.738,6.00,6,0.100,11486.000,0.200,130.000,0.300,4.000,0.500,0,1.000,0,5.000,0
"04/05/08","06:00:48",9988.000,"cc",28250.311,6.00,6,0.100,9855.000,0.200,131.000,0.300,2.000,0.500,0,1.000,0,5.000,0
"04/05/08","06:00:54",9617.000,"cc",28334.176,6.00,6,0.100,9508.000,0.200,107.000,0.300,2.000,0.500,0,1.000,0,5.000,0
"04/05/08","06:01:00",9565.000,"cc",28374.287,6.00,6,0.100,9428.000,0.200,136.000,0.300,1.000,0.500,0,1.000,0,5.000,0
"04/05/08","06:01:06",9063.000,"cc",28355.795,6.00,6,0.100,8933.000,0.200,129.000,0.300,1.000,0.500,0,1.000,0,5.000,0
"04/05/08","06:01:12",9096.000,"cc",28280.270,6.00,6,0.100,8940.000,0.200,154.000,0.300,2.000,0.500,0,1.000,0,5.000,0
"04/05/08","06:01:18",9806.000,"cc",28284.340,6.00,6,0.100,9630.000,0.200,174.000,0.300,2.000,0.500,0,1.000,0,5.000,0
"04/05/08","06:01:24",8792.000,"cc",28368.561,6.00,6,0.100,8708.000,0.200,84.000,0.300,0,0.500,0,1.000,0,5.000,0
"04/05/08","06:01:30",9337.000,"cc",28370.504,6.00,6,0.100,9238.000,0.200,99.000,0.300,0,0.500,0,1.000,0,5.000,0
"04/05/08","06:01:36",10794.000,"cc",28252.387,6.00,6,0.100,10639.000,0.200,152.000,0.300,3.000,0.500,0,1.000,0,5.000,0
"04/05/08","06:01:42",10345.000,"cc",28323.326,6.00,6,0.100,10177.000,0.200,165.000,0.300,3.000,0.500,0,1.000,0,5.000,0
"04/05/08","06:01:48",10479.000,"cc",28331.781,6.00,6,0.100,10288.000,0.200,189.000,0.300,2.000,0.500,0,1.000,0,5.000,0
"04/05/08","06:01:54",10105.000,"cc",28276.607,6.00,6,0.100,9944.000,0.200,160.000,0.300,1.000,0.500,0,1.000,0,5.000,0
"04/05/08","06:02:00",10406.000,"cc",28353.647,6.00,6,0.100,10262.000,0.200,142.000,0.300,2.000,0.500,0,1.000,0,5.000,0
"04/05/08","06:02:06",9837.000,"cc",28323.188,6.00,6,0.100,9700.000,0.200,134.000,0.300,3.000,0.500,0,1.000,0,5.000,0
"04/05/08","06:02:12",11320.000,"cc",28273.627,6.00,6,0.100,11081.000,0.200,233.000,0.300,6.000,0.500,0,1.000,0,5.000,0
"04/05/08","06:02:18",10697.000,"cc",28273.494,6.00,6,0.100,10500.000,0.200,193.000,0.300,3.000,0.500,1.000,1.000,0,5.000,0
"04/05/08","06:02:24",10825.000,"cc",28360.563,6.00,6,0.100,10591.000,0.200,231.000,0.300,3.000,0.500,0,1.000,0,5.000,0
"04/05/08","06:02:30",11184.000,"cc",28369.430,6.00,6,0.100,10908.000,0.200,275.000,0.300,1.000,0.500,0,1.000,0,5.000,0
"04/05/08","06:02:36",11047.000,"cc",28285.453,6.00,6,0.100,10752.000,0.200,290.000,0.300,5.000,0.500,0,1.000,0,5.000,0
"04/05/08","06:02:42",10169.000,"cc",28244.529,6.00,6,0.100,9984.000,0.200,182.000,0.300,2.000,0.500,0,1.000,1.000,5.000,0
"04/05/08","06:02:48",10358.000,"cc",28350.691,6.00,6,0.100,10191.000,0.200,167.000,0.300,0,0.500,0,1.000,0,5.000,0
"04/05/08","06:02:54",10525.000,"cc",28331.424,6.00,6,0.100,10296.000,0.200,226.000,0.300,3.000,0.500,0,1.000,0,5.000,0
"04/05/08","06:03:00",10879.000,"cc",28290.682,6.00,6,0.100,10664.000,0.200,212.000,0.300,3.000,0.500,0,1.000,0,5.000,0
"04/05/08","06:03:06",10612.000,"cc",28296.023,6.00,6,0.100,10393.000,0.200,216.000,0.300,3.000,0.500,0,1.000,0,5.000,0
"04/05/08","06:03:12",10465.000,"cc",28325.752,6.00,6,0.100,10307.000,0.200,156.000,0.300,1.000,0.500,1.000,1.000,0,5.000,0
"04/05/08","06:03:18",10638.000,"cc",28379.535,6.00,6,0.100,10470.000,0.200,168.000,0.300,0,0.500,0,1.000,0,5.000,0
"04/05/08","06:03:24",9606.000,"cc",28372.217,6.00,6,0.100,9484.000,0.200,121.000,0.300,1.000,0.500,0,1.000,0,5.000,0
"04/05/08","06:03:30",9931.000,"cc",28294.037,6.00,6,0.100,9799.000,0.200,128.000,0.300,4.000,0.500,0,1.000,0,5.000,0
"04/05/08","06:03:36",9659.000,"cc",28283.721,6.00,6,0.100,9528.000,0.200,130.000,0.300,1.000,0.500,0,1.000,0,5.000,0
"04/05/08","06:03:42",8095.000,"cc",28251.279,6.00,6,0.100,8054.000,0.200,39.000,0.300,1.000,0.500,1.000,1.000,0,5.000,0
"04/05/08","06:03:48",8392.000,"cc",28244.248,6.00,6,0.100,8333.000,0.200,57.000,0.300,2.000,0.500,0,1.000,0,5.000,0
"04/05/08","06:03:54",9645.000,"cc",28280.262,6.00,6,0.100,9555.000,0.200,89.000,0.300,1.000,0.500,0,1.000,0,5.000,0
"04/05/08","06:04:00",8986.000,"cc",28311.885,6.00,6,0.100,8948.000,0.200,38.000,0.300,0,0.500,0,1.000,0,5.000,0
"04/05/08","06:04:06",9442.000,"cc",28359.482,6.00,6,0.100,9368.000,0.200,73.000,0.300,1.000,0.500,0,1.000,0,5.000,0
"04/05/08","06:04:12",9025.000,"cc",28377.596,6.00,6,0.100,8967.000,0.200,58.000,0.300,0,0.500,0,1.000,0,5.000,0
"04/05/08","06:04:18",8559.000,"cc",28327.918,6.00,6,0.100,8531.000,0.200,27.000,0.300,1.000,0.500,0,1.000,0,5.000,0
"04/05/08","06:04:24",9166.000,"cc",28292.754,6.00,6,0.100,9113.000,0.200,53.000,0.300,0,0.500,0,1.000,0,5.000,0
"04/05/08","06:04:30",8846.000,"cc",28336.551,6.00,6,0.100,8795.000,0.200,50.000,0.300,1.000,0.500,0,1.000,0,5.000,0
"04/05/08","06:04:36",9512.000,"cc",28329.293,6.00,6,0.100,9464.000,0.200,47.000,0.300,1.000,0.500,0,1.000,0,5.000,0
"04/05/08","06:04:42",9691.000,"cc",28326.537,6.00,6,0.100,9633.000,0.200,57.000,0.300,1.000,0.500,0,1.000,0,5.000,0
"04/05/08","06:04:48",10290.000,"cc",28299.525,6.00,6,0.100,10208.000,0.200,82.000,0.300,0,0.500,0,1.000,0,5.000,0
"04/05/08","06:04:54",10910.000,"cc",28311.592,6.00,6,0.100,10821.000,0.200,89.000,0.300,0,0.500,0,1.000,0,5.000,0
"04/05/08","06:05:00",10890.000,"cc",28270.234,6.00,6,0.100,10794.000,0.200,95.000,0.300,1.000,0.500,0,1.000,0,5.000,0
"04/05/08","06:05:06",10512.000,"cc",28304.578,6.00,6,0.100,10424.000,0.200,87.000,0.300,1.000,0.500,0,1.000,0,5.000,0
"04/05/08","06:05:12",10355.000,"cc",28339.209,6.00,6,0.100,10277.000,0.200,75.000,0.300,3.000,0.500,0,1.000,0,5.000,0
"04/05/08","06:05:18",11098.000,"cc",28300.186,6.00,6,0.100,11021.000,0.200,74.000,0.300,3.000,0.500,0,1.000,0,5.000,0
"04/05/08","06:05:24",10687.000,"cc",28305.008,6.00,6,0.100,10584.000,0.200,102.000,0.300,1.000,0.500,0,1.000,0,5.000,0
"04/05/08","06:05:30",10694.000,"cc",28332.231,6.00,6,0.100,10613.000,0.200,81.000,0.300,0,0.500,0,1.000,0,5.000,0
"04/05/08","06:05:36",10099.000,"cc",28357.500,6.00,6,0.100,9993.000,0.200,105.000,0.300,1.000,0.500,0,1.000,0,5.000,0
"04/05/08","06:05:42",10735.000,"cc",28366.879,6.00,6,0.100,10633.000,0.200,101.000,0.300,1.000,0.500,0,1.000,0,5.000,0
"04/05/08","06:05:48",10448.000,"cc",28277.250,6.00,6,0.100,10349.000,0.200,99.000,0.300,0,0.500,0,1.000,0,5.000,0
"04/05/08","06:05:54",11112.000,"cc",28311.588,6.00,6,0.100,10978.000,0.200,133.000,0.300,1.000,0.500,0,1.000,0,5.000,0
"04/05/08","06:06:00",10743.000,"cc",28272.940,6.00,6,0.100,10632.000,0.200,109.000,0.300,2.000,0.500,0,1.000,0,5.000,0
"04/05/08","06:06:06",11579.000,"cc",28314.148,6.00,6,0.100,11448.000,0.200,129.000,0.300,2.000,0.500,0,1.000,0,5.000,0
"04/05/08","06:06:12",11240.000,"cc",28321.256,6.00,6,0.100,11147.000,0.200,93.000,0.300,0,0.500,0,1.000,0,5.000,0
"04/05/08","06:06:18",11380.000,"cc",28308.178,6.00,6,0.100,11238.000,0.200,142.000,0.300,0,0.500,0,1.000,0,5.000,0
"04/05/08","06:06:24",11153.000,"cc",28338.482,6.00,6,0.100,11057.000,0.200,96.000,0.300,0,0.500,0,1.000,0,5.000,0
"04/05/08","06:06:30",10798.000,"cc",28392.916,6.00,6,0.100,10636.000,0.200,162.000,0.300,0,0.500,0,1.000,0,5.000,0
"04/05/08","06:06:36",10838.000,"cc",28312.301,6.00,6,0.100,10706.000,0.200,130.000,0.300,1.000,0.500,1.000,1.000,0,5.000,0
"04/05/08","06:06:42",10874.000,"cc",28244.127,6.00,6,0.100,10689.000,0.200,182.000,0.300,3.000,0.500,0,1.000,0,5.000,0
"04/05/08","06:06:48",10920.000,"cc",28412.846,6.00,6,0.100,10761.000,0.200,157.000,0.300,2.000,0.500,0,1.000,0,5.000,0
"04/05/08","06:06:54",11421.000,"cc",28382.301,6.00,6,0.100,11256.000,0.200,163.000,0.300,2.000,0.500,0,1.000,0,5.000,0
"04/05/08","06:07:00",11377.000,"cc",28252.545,6.00,6,0.100,11202.000,0.200,174.000,0.300,1.000,0.500,0,1.000,0,5.000,0
"04/05/08","06:07:06",11257.000,"cc",28226.469,6.00,6,0.100,11080.000,0.200,174.000,0.300,3.000,0.500,0,1.000,0,5.000,0
"04/05/08","06:07:12",11851.000,"cc",28326.178,6.00,6,0.100,11684.000,0.200,165.000,0.300,1.000,0.500,1.000,1.000,0,5.000,0
"04/05/08","06:07:18",11933.000,"cc",28357.256,6.00,6,0.100,11733.000,0.200,199.000,0.300,1.000,0.500,0,1.000,0,5.000,0
"04/05/08","06:07:24",12152.000,"cc",28310.447,6.00,6,0.100,11947.000,0.200,205.000,0.300,0,0.500,0,1.000,0,5.000,0
"04/05/08","06:07:30",12049.000,"cc",28352.779,6.00,6,0.100,11866.000,0.200,183.000,0.300,0,0.500,0,1.000,0,5.000,0
"04/05/08","06:07:36",11901.000,"cc",28342.523,6.00,6,0.100,11675.000,0.200,222.000,0.300,3.000,0.500,1.000,1.000,0,5.000,0
"04/05/08","06:07:42",12111.000,"cc",28346.412,6.00,6,0.100,11893.000,0.200,216.000,0.300,2.000,0.500,0,1.000,0,5.000,0
"04/05/08","06:07:48",12339.000,"cc",28250.701,6.00,6,0.100,12110.000,0.200,229.000,0.300,0,0.500,0,1.000,0,5.000,0
"04/05/08","06:07:54",12337.000,"cc",28296.113,6.00,6,0.100,12097.000,0.200,240.000,0.300,0,0.500,0,1.000,0,5.000,0
"04/05/08","06:08:00",12456.000,"cc",28322.295,6.00,6,0.100,12287.000,0.200,167.000,0.300,2.000,0.500,0,1.000,0,5.000,0
"04/05/08","06:08:06",12079.000,"cc",28208.502,6.00,6,0.100,11926.000,0.200,152.000,0.300,1.000,0.500,0,1.000,0,5.000,0
"04/05/08","06:08:12",12435.000,"cc",28430.955,6.00,6,0.100,12257.000,0.200,176.000,0.300,2.000,0.500,0,1.000,0,5.000,0
"04/05/08","06:08:18",12588.000,"cc",28309.762,6.00,6,0.100,12391.000,0.200,196.000,0.300,1.000,0.500,0,1.000,0,5.000,0
"04/05/08","06:08:24",12183.000,"cc",28290.260,6.00,6,0.100,12013.000,0.200,166.000,0.300,3.000,0.500,1.000,1.000,0,5.000,0
"04/05/08","06:08:30",12441.000,"cc",28408.080,6.00,6,0.100,12311.000,0.200,129.000,0.300,1.000,0.500,0,1.000,0,5.000,0
"04/05/08","06:08:36",12422.000,"cc",28343.272,6.00,6,0.100,12221.000,0.200,199.000,0.300,2.000,0.500,0,1.000,0,5.000,0
"04/05/08","06:08:42",12116.000,"cc",28270.648,6.00,6,0.100,11891.000,0.200,221.000,0.300,4.000,0.500,0,1.000,0,5.000,0
"04/05/08","06:08:48",12768.000,"cc",28310.223,6.00,6,0.100,12488.000,0.200,276.000,0.300,4.000,0.500,0,1.000,0,5.000,0
"04/05/08","06:08:54",12063.000,"cc",28247.867,6.00,6,0.100,11818.000,0.200,239.000,0.300,5.000,0.500,1.000,1.000,0,5.000,0
"04/05/08","06:09:00",12016.000,"cc",28322.861,6.00,6,0.100,11771.000,0.200,241.000,0.300,4.000,0.500,0,1.000,0,5.000,0
"04/05/08","06:09:06",12283.000,"cc",28243.914,6.00,6,0.100,12059.000,0.200,220.000,0.300,4.000,0.500,0,1.000,0,5.000,0
"04/05/08","06:09:12",12401.000,"cc",28267.779,6.00,6,0.100,12177.000,0.200,222.000,0.300,2.000,0.500,0,1.000,0,5.000,0
"04/05/08","06:09:18",12071.000,"cc",28361.412,6.00,6,0.100,11846.000,0.200,223.000,0.300,2.000,0.500,0,1.000,0,5.000,0
"04/05/08","06:09:24",11869.000,"cc",28350.301,6.00,6,0.100,11655.000,0.200,211.000,0.300,3.000,0.500,0,1.000,0,5.000,0
"04/05/08","06:09:30",11940.000,"cc",28368.725,6.00,6,0.100,11724.000,0.200,215.000,0.300,1.000,0.500,0,1.000,0,5.000,0
"04/05/08","06:09:36",12062.000,"cc",28331.699,6.00,6,0.100,11825.000,0.200,235.000,0.300,2.000,0.500,0,1.000,0,5.000,0
"04/05/08","06:09:42",11917.000,"cc",28287.857,6.00,6,0.100,11678.000,0.200,233.000,0.300,5.000,0.500,1.000,1.000,0,5.000,0
"04/05/08","06:09:48",11855.000,"cc",28293.395,6.00,6,0.100,11641.000,0.200,213.000,0.300,1.000,0.500,0,1.000,0,5.000,0
"04/05/08","06:09:54",11824.000,"cc",28271.816,6.00,6,0.100,11622.000,0.200,201.000,0.300,1.000,0.500,0,1.000,0,5.000,0
"04/05/08","06:10:00",11439.000,"cc",28376.481,6.00,6,0.100,11249.000,0.200,190.000,0.300,0,0.500,0,1.000,0,5.000,0
"04/05/08","06:10:06",11601.000,"cc",28331.639,6.00,6,0.100,11394.000,0.200,205.000,0.300,2.000,0.500,0,1.000,0,5.000,0
"04/05/08","06:10:12",11732.000,"cc",28207.779,6.00,6,0.100,11515.000,0.200,215.000,0.300,2.000,0.500,0,1.000,0,5.000,0
"04/05/08","06:10:18",11562.000,"cc",28314.717,6.00,6,0.100,11376.000,0.200,185.000,0.300,1.000,0.500,0,1.000,0,5.000,0
"04/05/08","06:10:24",11256.000,"cc",28407.203,6.00,6,0.100,11061.000,0.200,195.000,0.300,0,0.500,0,1.000,0,5.000,0
"04/05/08","06:10:30",11306.000,"cc",28277.410,6.00,6,0.100,11123.000,0.200,182.000,0.300,1.000,0.500,0,1.000,0,5.000,0
"04/05/08","06:10:36",11157.000,"cc",28320.752,6.00,6,0.100,10972.000,0.200,184.000,0.300,1.000,0.500,0,1.000,0,5.000,0
"04/05/08","06:10:42",11397.000,"cc",28332.162,6.00,6,0.100,11219.000,0.200,177.000,0.300,1.000,0.500,0,1.000,0,5.000,0
"04/05/08","06:10:48",11883.000,"cc",28319.854,6.00,6,0.100,11682.000,0.200,200.000,0.300,1.000,0.500,0,1.000,0,5.000,0
"04/05/08","06:10:54",11542.000,"cc",28354.938,6.00,6,0.100,11402.000,0.200,139.000,0.300,1.000,0.500,0,1.000,0,5.000,0
"04/05/08","06:11:00",11712.000,"cc",28358.221,6.00,6,0.100,11528.000,0.200,183.000,0.300,1.000,0.500,0,1.000,0,5.000,0
"04/05/08","06:11:06",11854.000,"cc",28430.035,6.00,6,0.100,11673.000,0.200,181.000,0.300,0,0.500,0,1.000,0,5.000,0
"04/05/08","06:11:12",11862.000,"cc",28265.418,6.00,6,0.100,11690.000,0.200,171.000,0.300,1.000,0.500,0,1.000,0,5.000,0
"04/05/08","06:11:18",11706.000,"cc",28327.506,6.00,6,0.100,11532.000,0.200,172.000,0.300,2.000,0.500,0,1.000,0,5.000,0
"04/05/08","06:11:24",11584.000,"cc",28276.371,6.00,6,0.100,11428.000,0.200,156.000,0.300,0,0.500,0,1.000,0,5.000,0
"04/05/08","06:11:30",11874.000,"cc",28311.160,6.00,6,0.100,11689.000,0.200,183.000,0.300,0,0.500,2.000,1.000,0,5.000,0
"04/05/08","06:11:36",11931.000,"cc",28293.160,6.00,6,0.100,11744.000,0.200,186.000,0.300,1.000,0.500,0,1.000,0,5.000,0
"04/05/08","06:11:42",12065.000,"cc",28293.512,6.00,6,0.100,11882.000,0.200,182.000,0.300,1.000,0.500,0,1.000,0,5.000,0
"04/05/08","06:11:48",11401.000,"cc",28337.113,6.00,6,0.100,11240.000,0.200,160.000,0.300,1.000,0.500,0,1.000,0,5.000,0
"04/05/08","06:11:54",11548.000,"cc",28335.678,6.00,6,0.100,11397.000,0.200,149.000,0.300,2.000,0.500,0,1.000,0,5.000,0
"04/05/08","06:12:00",11435.000,"cc",28345.641,6.00,6,0.100,11270.000,0.200,164.000,0.300,1.000,0.500,0,1.000,0,5.000,0
"04/05/08","06:12:06",11528.000,"cc",28295.740,6.00,6,0.100,11346.000,0.200,182.000,0.300,0,0.500,0,1.000,0,5.000,0
"04/05/08","06:12:12",11735.000,"cc",28295.701,6.00,6,0.100,11569.000,0.200,164.000,0.300,2.000,0.500,0,1.000,0,5.000,0
"04/05/08","06:12:18",11302.000,"cc",28235.994,6.00,6,0.100,11139.000,0.200,160.000,0.300,3.000,0.500,0,1.000,0,5.000,0
"04/05/08","06:12:24",11142.000,"cc",28284.811,6.00,6,0.100,10976.000,0.200,166.000,0.300,0,0.500,0,1.000,0,5.000,0
"04/05/08","06:12:30",11393.000,"cc",28327.518,6.00,6,0.100,11197.000,0.200,194.000,0.300,2.000,0.500,0,1.000,0,5.000,0
"04/05/08","06:12:36",11657.000,"cc",28312.949,6.00,6,0.100,11445.000,0.200,209.000,0.300,3.000,0.500,0,1.000,0,5.000,0
"04/05/08","06:12:42",11595.000,"cc",28351.563,6.00,6,0.100,11394.000,0.200,201.000,0.300,0,0.500,0,1.000,0,5.000,0
"04/05/08","06:12:48",11396.000,"cc",28326.334,6.00,6,0.100,11241.000,0.200,155.000,0.300,0,0.500,0,1.000,0,5.000,0
"04/05/08","06:12:54",11470.000,"cc",28332.826,6.00,6,0.100,11295.000,0.200,171.000,0.300,3.000,0.500,1.000,1.000,0,5.000,0
"04/05/08","06:13:00",11459.000,"cc",28246.053,6.00,6,0.100,11269.000,0.200,189.000,0.300,1.000,0.500,0,1.000,0,5.000,0
"04/05/08","06:13:06",11446.000,"cc",28390.992,6.00,6,0.100,11279.000,0.200,164.000,0.300,2.000,0.500,1.000,1.000,0,5.000,0
"04/05/08","06:13:12",11542.000,"cc",28408.150,6.00,6,0.100,11369.000,0.200,172.000,0.300,1.000,0.500,0,1.000,0,5.000,0
"04/05/08","06:13:18",11192.000,"cc",28315.713,6.00,6,0.100,11063.000,0.200,128.000,0.300,1.000,0.500,0,1.000,0,5.000,0
"04/05/08","06:13:24",10830.000,"cc",28334.336,6.00,6,0.100,10686.000,0.200,142.000,0.300,2.000,0.500,0,1.000,0,5.000,0
"04/05/08","06:13:30",10526.000,"cc",28342.469,6.00,6,0.100,10393.000,0.200,133.000,0.300,0,0.500,0,1.000,0,5.000,0
"04/05/08","06:13:36",10318.000,"cc",28327.428,6.00,6,0.100,10198.000,0.200,119.000,0.300,1.000,0.500,0,1.000,0,5.000,0
"04/05/08","06:13:42",10740.000,"cc",28291.744,6.00,6,0.100,10599.000,0.200,140.000,0.300,1.000,0.500,0,1.000,0,5.000,0
"04/05/08","06:13:48",10939.000,"cc",28354.340,6.00,6,0.100,10790.000,0.200,149.000,0.300,0,0.500,0,1.000,0,5.000,0
"04/05/08","06:13:54",11365.000,"cc",28295.154,6.00,6,0.100,11217.000,0.200,148.000,0.300,0,0.500,0,1.000,0,5.000,0
"04/05/08","06:14:00",11344.000,"cc",28335.193,6.00,6,0.100,11159.000,0.200,182.000,0.300,3.000,0.500,0,1.000,0,5.000,0
"04/05/08","06:14:06",11705.000,"cc",28298.227,6.00,6,0.100,11509.000,0.200,193.000,0.300,2.000,0.500,1.000,1.000,0,5.000,0
"04/05/08","06:14:12",11681.000,"cc",28278.203,6.00,6,0.100,11521.000,0.200,159.000,0.300,1.000,0.500,0,1.000,0,5.000,0
"04/05/08","06:14:18",11712.000,"cc",28315.973,6.00,6,0.100,11553.000,0.200,158.000,0.300,1.000,0.500,0,1.000,0,5.000,0
"04/05/08","06:14:24",11734.000,"cc",28364.740,6.00,6,0.100,11584.000,0.200,146.000,0.300,4.000,0.500,0,1.000,0,5.000,0
"04/05/08","06:14:30",11918.000,"cc",28273.650,6.00,6,0.100,11733.000,0.200,184.000,0.300,1.000,0.500,0,1.000,0,5.000,0
"04/05/08","06:14:36",12274.000,"cc",28291.709,6.00,6,0.100,12139.000,0.200,135.000,0.300,0,0.500,0,1.000,0,5.000,0
"04/05/08","06:14:42",11813.000,"cc",28293.207,6.00,6,0.100,11652.000,0.200,159.000,0.300,2.000,0.500,0,1.000,0,5.000,0
"04/05/08","06:14:48",11629.000,"cc",28442.801,6.00,6,0.100,11460.000,0.200,168.000,0.300,1.000,0.500,0,1.000,0,5.000,0
"04/05/08","06:14:54",11011.000,"cc",28329.315,6.00,6,0.100,10851.000,0.200,158.000,0.300,1.000,0.500,1.000,1.000,0,5.000,0
"04/05/08","06:15:00",11607.000,"cc",28295.006,6.00,6,0.100,11426.000,0.200,181.000,0.300,0,0.500,0,1.000,0,5.000,0
"04/05/08","06:15:06",11541.000,"cc",28260.854,6.00,6,0.100,11399.000,0.200,142.000,0.300,0,0.500,0,1.000,0,5.000,0
"04/05/08","06:15:12",11357.000,"cc",28276.307,6.00,6,0.100,11190.000,0.200,167.000,0.300,0,0.500,0,1.000,0,5.000,0
"04/05/08","06:15:18",11219.000,"cc",28354.869,6.00,6,0.100,11063.000,0.200,155.000,0.300,1.000,0.500,0,1.000,0,5.000,0
"04/05/08","06:15:24",11112.000,"cc",28313.746,6.00,6,0.100,10964.000,0.200,147.000,0.300,1.000,0.500,0,1.000,0,5.000,0
"04/05/08","06:15:30",11498.000,"cc",28328.621,6.00,6,0.100,11309.000,0.200,186.000,0.300,3.000,0.500,0,1.000,0,5.000,0
"04/05/08","06:15:36",11697.000,"cc",28292.527,6.00,6,0.100,11526.000,0.200,169.000,0.300,1.000,0.500,1.000,1.000,0,5.000,0
"04/05/08","06:15:42",12085.000,"cc",28346.811,6.00,6,0.100,11881.000,0.200,202.000,0.300,2.000,0.500,0,1.000,0,5.000,0
"04/05/08","06:15:48",12099.000,"cc",28249.252,6.00,6,0.100,11903.000,0.200,194.000,0.300,2.000,0.500,0,1.000,0,5.000,0
"04/05/08","06:15:54",12224.000,"cc",28300.756,6.00,6,0.100,12045.000,0.200,178.000,0.300,1.000,0.500,0,1.000,0,5.000,0
"04/05/08","06:16:00",12469.000,"cc",28324.481,6.00,6,0.100,12247.000,0.200,219.000,0.300,2.000,0.500,1.000,1.000,0,5.000,0
"04/05/08","06:16:06",12608.000,"cc",28395.025,6.00,6,0.100,12350.000,0.200,255.000,0.300,3.000,0.500,0,1.000,0,5.000,0
"04/05/08","06:16:12",13130.000,"cc",28337.529,6.00,6,0.100,12864.000,0.200,264.000,0.300,2.000,0.500,0,1.000,0,5.000,0
"04/05/08","06:16:18",12887.000,"cc",28274.693,6.00,6,0.100,12664.000,0.200,221.000,0.300,2.000,0.500,0,1.000,0,5.000,0
"04/05/08","06:16:24",13053.000,"cc",28286.570,6.00,6,0.100,12797.000,0.200,256.000,0.300,0,0.500,0,1.000,0,5.000,0
"04/05/08","06:16:30",12964.000,"cc",28343.170,6.00,6,0.100,12742.000,0.200,222.000,0.300,0,0.500,0,1.000,0,5.000,0
"04/05/08","06:16:36",12686.000,"cc",28314.615,6.00,6,0.100,12464.000,0.200,220.000,0.300,2.000,0.500,0,1.000,0,5.000,0
"04/05/08","06:16:42",12933.000,"cc",28343.984,6.00,6,0.100,12717.000,0.200,215.000,0.300,1.000,0.500,0,1.000,0,5.000,0
"04/05/08","06:16:48",13023.000,"cc",28401.588,6.00,6,0.100,12785.000,0.200,234.000,0.300,4.000,0.500,0,1.000,0,5.000,0
"04/05/08","06:16:54",13063.000,"cc",28357.920,6.00,6,0.100,12834.000,0.200,229.000,0.300,0,0.500,0,1.000,0,5.000,0
"04/05/08","06:17:00",13182.000,"cc",28250.967,6.00,6,0.100,12927.000,0.200,253.000,0.300,1.000,0.500,1.000,1.000,0,5.000,0
"04/05/08","06:17:06",13155.000,"cc",28297.270,6.00,6,0.100,12886.000,0.200,268.000,0.300,1.000,0.500,0,1.000,0,5.000,0
"04/05/08","06:17:12",13033.000,"cc",28354.287,6.00,6,0.100,12773.000,0.200,258.000,0.300,2.000,0.500,0,1.000,0,5.000,0
"04/05/08","06:17:18",13062.000,"cc",28239.393,6.00,6,0.100,12826.000,0.200,235.000,0.300,1.000,0.500,0,1.000,0,5.000,0
"04/05/08","06:17:24",12724.000,"cc",28223.736,6.00,6,0.100,12490.000,0.200,233.000,0.300,1.000,0.500,0,1.000,0,5.000,0
"04/05/08","06:17:30",13025.000,"cc",28309.385,6.00,6,0.100,12793.000,0.200,232.000,0.300,0,0.500,0,1.000,0,5.000,0
"04/05/08","06:17:36",12726.000,"cc",28357.809,6.00,6,0.100,12457.000,0.200,268.000,0.300,1.000,0.500,0,1.000,0,5.000,0
"04/05/08","06:17:42",12910.000,"cc",28330.781,6.00,6,0.100,12648.000,0.200,259.000,0.300,3.000,0.500,0,1.000,0,5.000,0
"04/05/08","06:17:48",12903.000,"cc",28283.357,6.00,6,0.100,12644.000,0.200,259.000,0.300,0,0.500,0,1.000,0,5.000,0
"04/05/08","06:17:54",12560.000,"cc",28342.838,6.00,6,0.100,12326.000,0.200,230.000,0.300,3.000,0.500,0,1.000,1.000,5.000,0
"04/05/08","06:18:00",12757.000,"cc",28360.984,6.00,6,0.100,12532.000,0.200,222.000,0.300,3.000,0.500,0,1.000,0,5.000,0
"04/05/08","06:18:06",13227.000,"cc",28286.481,6.00,6,0.100,12947.000,0.200,280.000,0.300,0,0.500,0,1.000,0,5.000,0
"04/05/08","06:18:12",13152.000,"cc",28340.840,6.00,6,0.100,12913.000,0.200,238.000,0.300,1.000,0.500,0,1.000,0,5.000,0
"04/05/08","06:18:18",12926.000,"cc",28336.723,6.00,6,0.100,12684.000,0.200,239.000,0.300,3.000,0.500,0,1.000,0,5.000,0
"04/05/08","06:18:24",12924.000,"cc",28373.611,6.00,6,0.100,12713.000,0.200,207.000,0.300,4.000,0.500,0,1.000,0,5.000,0
"04/05/08","06:18:30",13076.000,"cc",28314.607,6.00,6,0.100,12838.000,0.200,236.000,0.300,2.000,0.500,0,1.000,0,5.000,0
"04/05/08","06:18:36",12996.000,"cc",28349.732,6.00,6,0.100,12746.000,0.200,245.000,0.300,5.000,0.500,0,1.000,0,5.000,0
"04/05/08","06:18:42",12945.000,"cc",28280.348,6.00,6,0.100,12703.000,0.200,238.000,0.300,3.000,0.500,1.000,1.000,0,5.000,0
"04/05/08","06:18:48",13202.000,"cc",28327.031,6.00,6,0.100,12951.000,0.200,248.000,0.300,2.000,0.500,1.000,1.000,0,5.000,0